Zurück zum Katalog

KSLV-II R/B

AktivSSO
NORAD 56750·ROCKET BODY·🇰🇷 South Korea

Gestartet May 25, 2023 von Naro Space Center

Loading…

Nächste Überflüge (nächste 24 Stunden)

TLE

AktuellSource: Space-Track

Epoche: Sep 13, 2026, 14:01 UTC

1 56750U 23072H   26256.58466926  .00006153  00000-0  17796-3 0  9992
2 56750  97.4794 104.6732 0024291  10.3824 349.7916 15.35707471183959

Verfolge KSLV-II R/B in Echtzeit mit AllMySat

Download on the App Store